Wind_Speed
23 24 25 25 25 25 25 26 26 27 27 27 27 26 26 26 26 26 28 28 28 28 28 28 28 28 27 27 27 28 27 26 26 26 25 25 25 25 25 24 24 24 23
24 25 25 25 25 26 26 26 26 27 28 28 27 27 28 28 27 27 28 28 28 29 29 29 29 29 28 28 28 28 27 26 26 26 25 25 25 25 25 25 24 25 25
25 24 24 25 26 27 27 27 27 28 28 27 27 27 27 27 27 27 28 29 28 28 28 28 29 29 29 28 28 28 27 26 25 26 26 26 26 27 26 27 25 25 25
25 25 24 25 26 27 27 27 27 27 27 27 27 27 27 27 28 28 28 29 29 29 29 29 28 28 29 29 29 28 28 27 26 26 27 27 27 27 27 27 27 27 27
26 26 25 25 26 26 26 27 27 27 27 27 27 27 27 28 28 29 29 29 29 29 30 29 28 28 28 27 27 28 28 28 28 27 28 28 28 28 29 28 28 29 29
26 26 25 25 26 25 25 26 26 26 28 28 28 28 28 28 29 29 30 30 29 29 29 28 27 27 27 27 27 28 29 29 29 29 29 28 28 29 30 29 29 30 30
25 25 25 25 25 25 25 25 26 27 27 28 28 28 29 30 29 29 28 28 27 27 27 27 26 25 26 26 27 27 28 29 30 29 29 29 29 30 30 31 30 30 31
25 25 26 25 25 24 24 25 25 26 26 26 27 28 28 28 28 27 26 26 26 25 25 25 25 25 25 26 26 28 28 29 30 30 30 30 30 30 30 31 32 32 31
25 25 24 24 24 24 24 24 25 25 25 25 26 26 26 25 24 24 25 25 26 24 24 24 24 25 25 25 26 27 28 29 30 31 31 30 30 31 31 32 33 33 33
24 24 23 23 23 24 24 24 25 25 25 24 24 24 24 23 23 23 23 24 24 24 23 23 24 24 24 25 25 27 28 29 29 30 31 32 32 32 31 31 31 32 33
24 24 23 22 22 22 23 23 23 23 23 23 23 23 23 22 22 23 22 22 22 23 23 23 24 24 24 25 25 26 26 28 29 30 30 31 32 33 32 32 32 32 33
23 22 21 21 21 21 22 22 22 22 22 22 22 22 22 22 21 22 22 21 21 22 23 23 23 24 24 24 24 24 25 26 28 28 28 30 32 33 34 33 33 33 33
21 21 20 20 20 21 21 20 20 20 21 21 21 21 22 21 21 20 20 20 21 21 22 22 23 23 24 23 23 24 24 25 27 27 28 29 30 31 32 34 34 34 34
20 20 20 20 20 20 20 19 19 19 20 20 20 20 20 20 19 18 18 19 20 21 22 23 23 22 23 23 23 24 24 24 26 27 28 28 29 30 31 33 34 34 35
19 19 20 20 20 19 19 18 19 19 19 20 20 19 19 18 17 17 18 19 20 20 21 22 22 23 23 23 23 24 24 24 25 26 27 28 29 30 30 32 33 34 35
19 19 19 18 18 18 18 18 18 19 19 19 18 18 17 17 17 17 17 18 19 20 20 21 22 23 23 24 24 24 24 25 25 26 26 27 28 29 29 31 32 33 34
18 18 18 17 17 17 17 17 17 18 18 17 17 16 14 14 15 15 16 17 18 19 18 19 20 21 22 22 23 23 24 25 25 26 26 26 26 26 27 29 30 31 32
17 17 18 18 18 17 17 17 17 17 16 15 14 13 13 13 14 14 15 15 15 16 16 17 18 19 19 20 20 21 23 24 24 24 25 25 26 26 27 28 29 30 31
17 17 17 18 18 18 17 16 16 15 15 14 14 13 13 13 13 13 13 14 14 14 15 15 15 15 16 17 18 19 20 21 22 23 23 24 25 26 27 27 28 29 30
17 17 18 18 18 17 17 17 17 16 15 14 14 13 13 14 14 14 13 13 12 12 12 12 12 14 14 15 17 17 18 19 20 21 22 22 23 25 25 26 27 28 29
17 17 17 17 18 17 17 18 18 17 16 15 15 14 14 14 14 14 13 12 11 10 10 11 12 13 14 15 15 15 16 17 18 19 20 21 22 24 25 25 26 27 27
16 16 17 17 18 18 18 18 17 17 16 16 16 15 14 13 13 13 12 11 11 10 10 10 11 12 12 12 13 14 14 16 17 18 19 19 21 22 23 24 25 25 26
16 16 17 18 18 18 18 18 18 18 17 16 16 15 14 13 12 12 11 11 10 10 10 10 10 10 12 11 11 12 13 13 15 16 16 17 18 19 20 22 23 23 24
17 17 17 17 18 18 18 19 19 18 17 16 16 15 14 13 11 11 10 10 9 9 9 9 9 9 10 10 10 10 10 11 12 13 14 15 17 18 19 20 21 22 23
16 16 17 17 18 19 18 19 20 19 18 17 17 16 14 12 11 11 10 9 9 9 9 9 9 9 9 8 8 9 9 10 11 12 13 14 14 16 17 17 18 19 20
16 16 17 17 18 19 19 19 20 19 19 18 17 15 13 12 11 11 11 10 9 9 8 8 8 8 7 8 8 8 9 9 11 12 12 13 14 15 15 16 17 17 19
Wind_Direction
296 295 294 292 290 288 286 284 280 278 278 278 275 273 271 269 268 267 264 262 261 261 259 256 257 257 256 255 253 251 250 250 248 247 244 242 242 241 242 243 243 241 240
297 295 294 292 291 289 287 284 282 280 279 277 275 272 270 270 269 268 266 265 264 262 259 258 257 256 256 256 254 253 251 249 246 245 246 245 242 241 241 241 242 241 242
299 296 295 294 291 288 284 282 282 281 278 276 275 273 272 270 269 269 267 265 264 264 261 260 259 257 256 255 254 251 247 246 245 245 245 245 244 243 243 242 242 242 243
301 298 296 294 293 290 287 284 281 281 279 277 275 273 271 270 271 269 267 266 266 264 263 259 258 258 255 254 252 250 247 246 245 246 244 244 245 244 243 243 241 242 243
302 299 297 295 294 292 288 286 283 281 280 279 277 274 272 272 273 271 267 266 266 265 263 260 258 258 255 252 250 250 249 248 246 246 246 246 245 244 243 244 243 243 244
302 302 299 297 296 294 290 287 285 284 283 282 280 278 276 275 274 272 269 267 266 265 264 260 258 256 253 252 250 250 249 247 247 247 246 246 247 245 245 246 245 244 245
304 302 300 297 296 295 294 291 290 287 286 285 283 281 279 276 274 272 269 267 266 265 263 261 257 254 253 251 250 251 249 247 246 246 246 247 248 247 247 247 246 246 246
305 304 301 298 296 295 294 294 292 290 288 287 284 282 282 279 275 272 268 265 263 263 260 259 257 254 253 250 250 250 249 249 247 246 246 246 247 248 249 247 246 246 247
307 306 302 299 297 295 294 293 293 293 291 289 287 286 284 281 277 273 269 265 263 260 258 259 257 254 253 251 250 252 251 249 248 247 245 245 247 248 248 248 247 246 247
310 308 304 301 299 296 297 296 294 293 292 291 290 289 287 284 279 274 268 266 262 258 258 257 257 256 254 253 253 251 252 250 249 247 246 246 247 247 247 247 247 247 248
311 309 307 305 303 300 300 300 297 294 295 294 292 289 287 284 281 275 269 265 261 258 257 257 256 254 253 253 254 253 251 251 250 248 247 247 247 247 245 245 246 248 248
314 313 313 310 308 305 303 302 301 298 297 295 291 289 288 283 280 276 269 264 261 258 257 256 255 253 253 254 253 252 253 252 250 249 249 248 248 248 247 246 248 249 250
318 319 318 314 311 309 306 307 305 302 300 297 293 290 288 285 280 277 271 264 260 258 258 256 256 254 252 252 252 253 254 254 252 250 250 250 249 248 248 249 250 250 251
322 322 321 318 315 312 310 310 307 305 303 299 296 292 289 285 282 279 273 266 263 261 259 256 255 255 253 252 252 253 255 255 255 253 252 252 251 250 250 251 252 252 252
322 322 322 320 318 316 314 314 313 310 307 304 299 293 289 288 283 279 273 267 266 263 258 255 254 256 256 254 254 256 255 254 256 253 252 253 253 253 253 252 253 253 253
323 323 324 323 321 320 319 318 317 313 311 308 305 299 294 290 285 281 276 272 268 265 262 257 256 258 258 257 257 259 258 256 254 252 252 252 253 254 254 254 254 253 252
326 324 324 325 324 322 319 319 320 318 316 313 309 306 302 297 289 285 279 274 269 266 265 261 259 259 260 259 258 260 261 257 253 253 254 255 255 256 256 256 256 255 254
333 332 329 328 326 325 324 324 324 323 320 319 317 315 307 301 297 292 287 280 272 269 268 264 262 262 261 261 260 260 261 257 254 254 257 257 258 258 258 259 257 256 255
336 337 339 337 332 331 332 332 331 329 326 323 321 317 312 308 304 301 294 287 277 271 268 267 267 265 263 263 264 264 262 260 258 258 257 258 259 260 261 261 259 258 258
338 339 341 340 340 337 337 337 335 331 328 326 327 325 319 313 307 305 297 289 284 279 273 268 267 264 263 267 267 265 264 263 262 259 258 260 260 261 262 262 260 261 261
342 340 341 343 345 344 342 340 338 337 334 330 328 327 322 316 310 307 302 294 285 284 279 273 267 265 264 266 267 266 265 265 265 265 262 261 261 261 262 262 263 263 262
347 347 345 345 346 346 347 346 345 345 341 333 328 326 324 318 314 310 304 295 286 283 281 274 272 267 266 269 267 267 266 268 272 272 268 263 264 266 263 262 263 264 263
347 346 346 345 346 347 349 348 345 346 344 339 335 331 326 321 316 313 306 299 292 289 287 281 275 273 267 273 276 275 273 276 278 278 273 269 268 267 268 269 268 265 263
348 347 349 349 348 347 348 349 348 346 345 342 339 333 329 325 320 317 311 305 300 295 290 284 280 278 274 272 277 278 278 280 282 281 278 276 275 273 272 272 271 268 264
346 348 350 350 348 348 347 346 347 346 345 342 340 338 336 333 326 326 321 314 308 303 297 292 290 285 279 281 284 284 283 286 289 289 288 286 284 281 278 278 277 274 270
344 345 347 346 345 345 345 345 346 345 344 343 341 342 340 336 330 323 323 316 310 308 304 296 290 284 287 294 294 293 294 295 293 294 294 294 292 289 285 284 282 279 275
Height
5831 5829 5828 5826 5825 5824 5823 5822 5821 5821 5821 5820 5820 5820 5820 5820 5820 5820 5821 5821 5822 5823 5823 5824 5825 5827 5829 5830 5832 5833 5835 5837 5838 5840 5842 5844 5847 5849 5851 5854 5856 5859 5861
5826 5824 5822 5821 5819 5818 5817 5815 5815 5814 5814 5813 5813 5813 5812 5813 5813 5813 5813 5814 5814 5815 5816 5817 5818 5820 5822 5823 5825 5827 5828 5830 5833 5835 5837 5839 5842 5844 5846 5849 5851 5854 5856
5820 5818 5817 5815 5813 5811 5810 5809 5808 5807 5806 5806 5806 5805 5805 5805 5806 5806 5806 5806 5807 5807 5808 5809 5811 5812 5814 5816 5818 5820 5822 5824 5827 5829 5831 5834 5836 5839 5841 5844 5846 5849 5852
5814 5812 5810 5809 5806 5804 5803 5802 5800 5800 5799 5798 5798 5798 5798 5798 5798 5798 5798 5799 5799 5800 5801 5802 5803 5805 5807 5809 5811 5813 5816 5818 5820 5823 5825 5828 5830 5833 5835 5838 5841 5844 5846
5808 5806 5804 5802 5800 5798 5796 5795 5793 5793 5792 5791 5791 5790 5790 5790 5790 5790 5790 5791 5791 5792 5793 5794 5795 5797 5798 5801 5804 5806 5809 5811 5814 5816 5819 5821 5824 5826 5829 5832 5835 5838 5840
5803 5801 5798 5796 5793 5791 5790 5788 5786 5785 5784 5783 5783 5783 5782 5782 5782 5782 5782 5782 5783 5784 5785 5786 5788 5789 5791 5794 5796 5799 5801 5803 5806 5809 5812 5814 5817 5820 5823 5826 5828 5831 5834
5797 5795 5792 5790 5788 5785 5783 5781 5780 5779 5777 5776 5775 5774 5774 5773 5773 5773 5774 5775 5775 5776 5777 5778 5780 5782 5784 5787 5789 5791 5794 5796 5799 5802 5805 5807 5810 5813 5816 5819 5822 5824 5827
5791 5789 5786 5784 5782 5780 5777 5775 5774 5772 5771 5769 5768 5767 5766 5765 5765 5765 5766 5767 5768 5769 5770 5771 5773 5775 5777 5779 5781 5784 5786 5789 5791 5794 5797 5800 5803 5806 5809 5812 5815 5817 5820
5786 5783 5780 5778 5776 5774 5772 5770 5768 5766 5764 5762 5760 5759 5758 5758 5757 5757 5758 5759 5760 5761 5763 5764 5766 5768 5770 5772 5774 5776 5778 5781 5784 5787 5790 5793 5795 5798 5801 5804 5807 5810 5812
5780 5778 5775 5772 5770 5767 5766 5764 5762 5760 5758 5756 5754 5752 5751 5750 5750 5751 5751 5752 5752 5754 5756 5758 5760 5762 5763 5765 5767 5769 5771 5773 5776 5778 5782 5785 5787 5790 5793 5796 5799 5802 5804
5775 5772 5770 5767 5764 5762 5760 5758 5755 5753 5751 5750 5748 5747 5745 5744 5743 5744 5745 5745 5746 5747 5749 5751 5753 5755 5757 5759 5760 5762 5764 5766 5768 5770 5773 5776 5779 5782 5785 5788 5791 5794 5796
5771 5768 5765 5762 5759 5757 5754 5752 5750 5748 5746 5744 5742 5741 5739 5738 5738 5737 5737 5738 5739 5741 5742 5744 5746 5748 5750 5752 5753 5755 5757 5758 5761 5763 5766 5768 5771 5774 5777 5780 5782 5785 5788
5767 5764 5761 5758 5755 5752 5750 5747 5745 5743 5741 5738 5736 5735 5734 5732 5731 5731 5731 5732 5733 5734 5735 5737 5739 5741 5743 5745 5747 5749 5750 5752 5754 5756 5758 5761 5763 5766 5768 5771 5774 5776 5779
5764 5761 5757 5754 5751 5748 5746 5743 5741 5738 5736 5733 5731 5729 5728 5726 5725 5725 5725 5725 5726 5728 5729 5730 5732 5734 5735 5737 5739 5741 5743 5745 5747 5749 5751 5753 5755 5758 5760 5762 5765 5767 5770
5761 5757 5754 5751 5748 5745 5742 5739 5737 5734 5731 5729 5726 5724 5722 5721 5720 5720 5719 5719 5720 5721 5723 5723 5725 5727 5729 5731 5732 5734 5736 5738 5740 5741 5743 5746 5748 5749 5751 5753 5756 5758 5760
5758 5754 5751 5748 5745 5742 5739 5736 5733 5730 5727 5724 5721 5719 5717 5716 5715 5715 5714 5714 5714 5715 5716 5717 5719 5721 5722 5724 5725 5727 5728 5730 5732 5734 5736 5738 5739 5741 5743 5744 5746 5749 5751
5755 5752 5749 5745 5742 5739 5735 5732 5729 5726 5723 5720 5717 5714 5713 5712 5711 5710 5709 5709 5709 5709 5710 5712 5713 5714 5715 5717 5718 5720 5721 5723 5725 5726 5728 5730 5731 5732 5734 5736 5738 5740 5742
5752 5749 5746 5742 5739 5736 5732 5729 5726 5722 5719 5716 5713 5711 5709 5708 5707 5706 5705 5704 5704 5704 5705 5706 5707 5708 5709 5710 5712 5713 5714 5716 5717 5719 5720 5722 5723 5725 5726 5727 5729 5731 5733
5751 5747 5744 5740 5737 5733 5730 5726 5723 5720 5716 5713 5711 5708 5706 5704 5703 5701 5700 5700 5700 5700 5700 5701 5702 5703 5704 5705 5706 5707 5708 5709 5710 5712 5713 5715 5716 5717 5718 5720 5721 5722 5724
5749 5746 5742 5739 5735 5731 5728 5724 5721 5717 5714 5711 5708 5706 5704 5701 5700 5698 5697 5696 5696 5696 5696 5697 5698 5698 5699 5699 5700 5701 5703 5703 5705 5706 5707 5708 5709 5710 5711 5712 5713 5714 5715
5747 5744 5740 5737 5733 5730 5726 5722 5719 5715 5712 5709 5706 5704 5701 5699 5697 5695 5693 5692 5692 5692 5693 5693 5694 5694 5695 5695 5696 5697 5698 5699 5700 5700 5701 5702 5703 5704 5704 5705 5705 5706 5706
5746 5743 5739 5736 5732 5728 5725 5721 5717 5714 5710 5707 5705 5702 5699 5696 5694 5692 5690 5689 5689 5689 5689 5689 5690 5690 5691 5691 5691 5692 5693 5694 5695 5695 5695 5696 5696 5696 5697 5697 5697 5697 5697
5745 5742 5738 5735 5731 5727 5724 5720 5716 5713 5709 5706 5702 5699 5697 5694 5691 5689 5688 5687 5686 5686 5686 5686 5687 5687 5687 5687 5688 5688 5689 5689 5689 5689 5689 5690 5690 5690 5690 5690 5690 5690 5690
5744 5741 5737 5734 5730 5726 5723 5719 5715 5711 5708 5704 5700 5697 5694 5691 5689 5687 5686 5685 5684 5683 5683 5683 5683 5684 5684 5684 5684 5685 5685 5685 5685 5684 5684 5685 5684 5684 5684 5683 5683 5683 5683
5744 5740 5737 5733 5729 5726 5722 5718 5714 5710 5706 5702 5699 5695 5692 5690 5688 5686 5684 5683 5682 5682 5681 5681 5681 5681 5681 5681 5681 5681 5681 5681 5681 5681 5680 5680 5679 5679 5678 5677 5677 5676 5676
5743 5740 5736 5733 5729 5725 5721 5717 5713 5709 5705 5701 5697 5694 5691 5689 5686 5685 5683 5682 5681 5680 5680 5679 5679 5679 5679 5678 5678 5678 5678 5678 5677 5677 5676 5676 5675 5674 5673 5672 5671 5670 5670